#timestamp,LO_Frequency,Hit 
1499227215.3,286047044.2,N
1499227235.2,286047043.4,N
1499227255.0,286047043.3,N
1499227255.9,286047043.3,N
1499227275.7,286047042.0,N
1499227295.6,286047042.1,N
1499227315.4,286047042.7,N
1499227335.2,286047042.7,N
1499227355.1,286047042.7,N
1499227356.0,286047042.7,N
1499227375.8,286047043.7,N
1499227395.6,286047045.7,N
1499227415.5,286047047.3,N
1499227435.3,286047044.7,N
1499227455.1,286047047.4,N
1499227475.9,286047048.6,Y
1499227495.7,286047000.5,N
1499227515.5,286047000.7,N
1499227535.4,286047002.7,N
1499227555.2,286047002.2,N
1499227575.0,286047004.4,N
1499227575.9,286047004.4,N
1499227595.8,286047001.5,N
1499227615.6,286047002.5,N
1499227635.4,286046999.9,N
1499227655.3,286047001.1,N
1499227675.1,286047000.7,N
1499227676.0,286047000.7,N
1499227695.8,286046998.2,N
1499227715.7,286046999.2,N
1499227735.5,286046999.6,N
1499227755.3,286046996.5,N
1499227775.1,286046999.1,N
1499227795.9,286046996.5,N
1499227815.7,286046999.1,N
1499227835.5,286046999.0,N
1499227855.4,286046999.2,N
1499227875.2,286046998.5,N
1499227895.0,286046999.4,N
1499227895.9,286046999.4,N
1499227915.8,286046998.7,N
1499227935.6,286046997.8,N
1499227955.4,286047000.0,N
1499227975.3,286047000.6,N
1499227995.1,286046998.1,N
1499227996.0,286046998.1,N
1499228015.8,286047001.1,N
1499228035.7,286046999.3,N
1499228055.5,286047001.0,N
1499228075.3,286046998.8,N
1499228095.2,286047001.2,N
1499228115.9,286047000.9,N
1499228135.7,286047000.7,N
1499228155.6,286046998.9,N
1499228175.4,286046998.6,N
1499228195.2,286046998.4,N
1499228215.0,286046997.2,N
1499228215.9,286046997.2,N
1499228235.8,286046998.3,N
1499228255.6,286047002.8,N
1499228275.4,286046998.2,N
1499228295.3,286046996.9,N
1499228315.1,286046995.3,N
1499228335.8,286046995.1,N
1499228355.7,286046997.2,N
1499228375.5,286046999.2,N
1499228395.3,286046998.6,N
1499228415.2,286047000.4,N
1499228435.9,286047000.2,N
1499228455.7,286047001.0,N
1499228475.6,286046998.6,N
1499228495.4,286046998.8,N
1499228515.2,286047000.7,N
1499228535.1,286047001.0,N
1499228536.0,286047001.0,N
1499228555.8,286046998.9,N
1499228575.6,286046999.5,N
1499228595.5,286046998.6,N
1499228615.3,286046998.1,N
1499228635.1,286046996.6,N
1499228655.8,286046996.8,N
1499228675.7,286046996.8,N
1499228695.5,286046998.4,N
1499228715.3,286046999.6,N
1499228735.2,286046999.5,N
1499228755.0,286046998.9,N
1499228755.9,286046998.9,N
1499228775.7,286046999.1,N
1499228795.6,286046998.3,N
1499228815.4,286046998.1,N
1499228835.2,286046998.4,N
1499228855.1,286046998.2,N
1499228856.0,286046998.2,N
1499228875.8,286046999.4,N
1499228895.6,286046995.8,N
1499228915.5,286046997.2,N
1499228935.3,286046995.0,N
1499228955.1,286046995.3,N
1499228975.9,286046995.9,N
1499228995.7,286046996.3,N
1499229015.5,286046994.9,N
1499229035.3,286046997.3,N
1499229055.2,286046997.9,N
1499229075.0,286046996.2,N
1499229075.9,286046996.2,N
1499229095.7,286046993.8,N
1499229115.6,286046993.9,N
1499229135.4,286046995.4,N
1499229155.2,286046996.3,N
1499229175.1,286046999.1,N
1499229176.0,286046999.1,N
1499229195.8,286046999.0,N
1499229215.6,286046997.2,N
1499229235.5,286046996.9,N
1499229255.3,286046997.8,N
1499229275.1,286046998.7,N
1499229295.9,286046999.6,N
1499229315.7,286047001.1,N
1499229335.5,286047001.1,N
1499229355.4,286046998.9,N
1499229375.2,286047000.9,N
1499229395.0,286046998.2,N
1499229395.9,286046998.2,N
1499229415.8,286046997.0,N
1499229435.6,286046999.0,N
1499229455.4,286046998.8,N
1499229475.3,286046996.6,N
1499229495.1,286046997.9,N
1499229496.0,286046997.9,N
1499229515.8,286046995.5,N
1499229535.6,286046996.1,N
1499229555.5,286046995.2,N
1499229575.3,286046995.5,N
1499229595.1,286046995.6,N
1499229615.9,286046997.2,N
1499229635.7,286046996.1,N
1499229655.5,286046993.4,N
1499229675.4,286046995.3,N
1499229695.2,286046997.7,N
1499229715.0,286046995.3,N
1499229715.9,286046995.3,N
1499229735.8,286046997.8,N
1499229755.6,286046995.8,N
1499229775.4,286046993.7,N
1499229795.3,286046993.7,N
1499229815.1,286046996.1,N
1499229816.0,286046996.1,N
1499229835.8,286046996.0,N
1499229855.7,286046993.8,N
1499229875.5,286046994.5,N
1499229895.3,286046994.4,N
1499229915.1,286046996.1,N
1499229935.9,286046995.1,N
1499229955.7,286046994.9,N
1499229975.5,286046995.7,N
1499229995.4,286046993.7,N
1499230015.2,286046991.8,N
1499230035.0,286046994.5,N
1499230035.9,286046994.5,N
1499230055.8,286046994.2,N
1499230075.6,286046992.2,N
1499230095.4,286046993.6,N
1499230115.3,286046995.9,N
1499230135.1,286046993.3,N
1499230136.0,286046993.3,N
1499230155.8,286046996.3,N
1499230175.7,286046995.5,N
1499230195.5,286046995.7,N
1499230215.3,286046995.6,N
1499230235.2,286046996.0,N
1499230255.9,286046991.8,N
1499230275.7,286046994.8,N
1499230295.6,286046994.1,N
1499230315.4,286046994.0,N
1499230335.2,286046992.4,N
1499230355.0,286046992.4,N
1499230355.9,286046992.4,N
1499230375.8,286046992.8,N
1499230395.6,286046991.3,N
1499230415.4,286046992.8,N
1499230435.3,286046996.0,N
1499230455.1,286046993.2,N
1499230475.8,286046992.5,N
1499230495.7,286046992.8,N
1499230515.5,286046991.9,N
1499230535.3,286046994.4,N
1499230555.2,286046996.0,N
1499230575.9,286046996.2,N
1499230595.7,286046994.6,N
1499230615.6,286046991.9,N
1499230635.4,286046992.1,N
1499230655.2,286046990.1,N
1499230675.0,286046990.2,N
1499230676.0,286046990.2,N
1499230695.8,286046991.3,N
1499230715.6,286046988.9,N
1499230735.4,286046989.7,N
1499230755.3,286046989.1,N
1499230775.1,286046991.1,N
1499230795.8,286046989.9,N
